EN

Hourly Weather Lacanau-Océan

Today, 5 August, Thursday

Time Temperature Precipitation Wind Pressure Humidity
00:00 +17°C° 0 mm 4 mps 761 mmHg 84%
01:00 +17°C° 0 mm 4 mps 761 mmHg 84%
02:00 +17°C° 0 mm 4 mps 760 mmHg 84%
03:00 +17°C° 0 mm 3 mps 760 mmHg 84%
04:00 +18°C° 0 mm 4 mps 760 mmHg 84%
05:00 +18°C° 0 mm 4 mps 759 mmHg 84%
06:00 +18°C° 0 mm 4 mps 759 mmHg 85%
07:00 +19°C° 0 mm 4 mps 759 mmHg 80%
08:00 +21°C° 0 mm 5 mps 759 mmHg 75%
09:00 +22°C° 0 mm 5 mps 759 mmHg 70%
10:00 +23°C° 0 mm 6 mps 759 mmHg 66%
11:00 +23°C° 0 mm 6 mps 759 mmHg 62%
12:00 +23°C° 0 mm 6 mps 758 mmHg 61%
13:00 +23°C° 0 mm 7 mps 758 mmHg 65%
14:00 +23°C° 0 mm 7 mps 758 mmHg 69%
15:00 +22°C° 0 mm 7 mps 758 mmHg 73%
16:00 +22°C° 0 mm 7 mps 758 mmHg 75%
17:00 +22°C° 0 mm 7 mps 757 mmHg 77%
18:00 +21°C° 0 mm 7 mps 757 mmHg 79%
19:00 +21°C° 0 mm 7 mps 758 mmHg 79%
20:00 +20°C° 0 mm 7 mps 758 mmHg 79%
21:00 +18°C° 0 mm 7 mps 758 mmHg 79%
22:00 +18°C° 0.1 mm 7 mps 758 mmHg 79%
23:00 +18°C° 0.1 mm 7 mps 758 mmHg 79%

Tomorrow, 6 August, Friday

Time Temperature Precipitation Wind Pressure Humidity
00:00 +18°C° 0.1 mm 7 mps 758 mmHg 79%
01:00 +18°C° 0.1 mm 7 mps 758 mmHg 78%
02:00 +19°C° 0.1 mm 6 mps 758 mmHg 77%
03:00 +19°C° 0.1 mm 6 mps 758 mmHg 76%
04:00 +19°C° 0.1 mm 6 mps 758 mmHg 77%
05:00 +19°C° 0.1 mm 6 mps 758 mmHg 78%
06:00 +19°C° 0.1 mm 5 mps 758 mmHg 79%
07:00 +19°C° 0.1 mm 5 mps 758 mmHg 75%
08:00 +20°C° 0.1 mm 5 mps 758 mmHg 71%
09:00 +21°C° 0.1 mm 5 mps 758 mmHg 68%
10:00 +21°C° 0 mm 5 mps 758 mmHg 64%
11:00 +22°C° 0 mm 4 mps 758 mmHg 59%
12:00 +23°C° 0 mm 4 mps 758 mmHg 55%
13:00 +23°C° 0 mm 4 mps 757 mmHg 54%
14:00 +23°C° 0 mm 4 mps 757 mmHg 53%
15:00 +25°C° 0 mm 4 mps 757 mmHg 51%
16:00 +24°C° 0 mm 3 mps 756 mmHg 55%
17:00 +22°C° 0 mm 3 mps 756 mmHg 58%
18:00 +21°C° 0 mm 2 mps 756 mmHg 62%
19:00 +20°C° 0 mm 2 mps 756 mmHg 68%
20:00 +19°C° 0 mm 1 mps 756 mmHg 74%
21:00 +18°C° 0 mm 1 mps 756 mmHg 79%
22:00 +18°C° 0 mm 2 mps 756 mmHg 77%
23:00 +18°C° 0 mm 2 mps 755 mmHg 75%

Day after tomorrow, 7 August, Saturday

Time Temperature Precipitation Wind Pressure Humidity
00:00 +18°C° 0 mm 2 mps 755 mmHg 73%
01:00 +18°C° 0.2 mm 3 mps 755 mmHg 79%
02:00 +18°C° 0.2 mm 3 mps 754 mmHg 84%
03:00 +17°C° 0.2 mm 3 mps 754 mmHg 90%
04:00 +17°C° 0.1 mm 4 mps 754 mmHg 89%
05:00 +17°C° 0.1 mm 4 mps 754 mmHg 89%
06:00 +16°C° 0.1 mm 5 mps 754 mmHg 89%
07:00 +19°C° 0.3 mm 6 mps 754 mmHg 85%
08:00 +20°C° 0.3 mm 6 mps 755 mmHg 81%
09:00 +21°C° 0.3 mm 7 mps 755 mmHg 77%
10:00 +21°C° 0.4 mm 8 mps 755 mmHg 73%
11:00 +22°C° 0.4 mm 8 mps 755 mmHg 70%
12:00 +22°C° 0.4 mm 9 mps 755 mmHg 66%
13:00 +22°C° 0.1 mm 9 mps 756 mmHg 65%
14:00 +22°C° 0.1 mm 9 mps 756 mmHg 65%
15:00 +22°C° 0.1 mm 9 mps 756 mmHg 65%
16:00 +21°C° 0 mm 8 mps 757 mmHg 66%
17:00 +21°C° 0 mm 7 mps 757 mmHg 67%
18:00 +20°C° 0 mm 7 mps 757 mmHg 68%
19:00 +19°C° 0 mm 6 mps 758 mmHg 73%
20:00 +17°C° 0 mm 5 mps 759 mmHg 78%
21:00 +16°C° 0 mm 5 mps 759 mmHg 82%
22:00 +15°C° 0.1 mm 5 mps 759 mmHg 84%
23:00 +15°C° 0.1 mm 4 mps 759 mmHg 86%

8 August, Sunday

Time Temperature Precipitation Wind Pressure Humidity
00:00 +15°C° 0.1 mm 4 mps 760 mmHg 88%
01:00 +15°C° 0.1 mm 4 mps 760 mmHg 89%
02:00 +14°C° 0.1 mm 4 mps 760 mmHg 89%
03:00 +14°C° 0.1 mm 4 mps 760 mmHg 90%
04:00 +14°C° 0.1 mm 4 mps 760 mmHg 89%
05:00 +15°C° 0.1 mm 4 mps 760 mmHg 89%
06:00 +15°C° 0.1 mm 4 mps 761 mmHg 88%
07:00 +16°C° 0.1 mm 5 mps 761 mmHg 82%
08:00 +19°C° 0.1 mm 5 mps 761 mmHg 75%
09:00 +20°C° 0.1 mm 5 mps 762 mmHg 68%
10:00 +21°C° 0 mm 5 mps 762 mmHg 62%
11:00 +22°C° 0 mm 5 mps 762 mmHg 56%
12:00 +23°C° 0 mm 5 mps 762 mmHg 49%
13:00 +23°C° 0 mm 5 mps 762 mmHg 50%
14:00 +23°C° 0 mm 4 mps 762 mmHg 50%
15:00 +23°C° 0 mm 4 mps 762 mmHg 50%
16:00 +22°C° 0 mm 4 mps 763 mmHg 56%
17:00 +21°C° 0 mm 3 mps 763 mmHg 61%
18:00 +20°C° 0 mm 3 mps 763 mmHg 67%
19:00 +19°C° 0 mm 2 mps 763 mmHg 70%
20:00 +18°C° 0 mm 2 mps 763 mmHg 74%
21:00 +17°C° 0 mm 2 mps 763 mmHg 78%
22:00 +18°C° 0 mm 1 mps 763 mmHg 79%
23:00 +16°C° 0 mm 1 mps 763 mmHg 80%

9 August, Monday

Time Temperature Precipitation Wind Pressure Humidity
00:00 +16°C° 0 mm 1 mps 764 mmHg 82%
01:00 +16°C° 0 mm 1 mps 764 mmHg 83%
02:00 +15°C° 0 mm 1 mps 763 mmHg 85%
03:00 +15°C° 0 mm 1 mps 763 mmHg 87%
04:00 +15°C° 0 mm 1 mps 763 mmHg 86%
05:00 +16°C° 0 mm 1 mps 764 mmHg 85%
06:00 +16°C° 0 mm 1 mps 764 mmHg 84%
07:00 +19°C° 0 mm 1 mps 764 mmHg 77%
08:00 +21°C° 0 mm 1 mps 764 mmHg 70%
09:00 +22°C° 0 mm 1 mps 765 mmHg 64%
10:00 +23°C° 0 mm 1 mps 765 mmHg 60%
11:00 +24°C° 0 mm 1 mps 765 mmHg 56%
12:00 +24°C° 0 mm 2 mps 765 mmHg 52%
13:00 +25°C° 0 mm 2 mps 765 mmHg 50%
14:00 +25°C° 0 mm 3 mps 765 mmHg 48%
15:00 +26°C° 0 mm 3 mps 765 mmHg 47%
16:00 +25°C° 0 mm 4 mps 765 mmHg 51%
17:00 +23°C° 0 mm 4 mps 765 mmHg 56%
18:00 +22°C° 0 mm 4 mps 765 mmHg 60%
19:00 +20°C° 0 mm 4 mps 765 mmHg 69%
20:00 +19°C° 0 mm 4 mps 765 mmHg 78%
21:00 +17°C° 0 mm 4 mps 766 mmHg 87%
22:00 +17°C° 0 mm 4 mps 766 mmHg 89%
23:00 +15°C° 0 mm 4 mps 766 mmHg 90%

10 August, Tuesday

Time Temperature Precipitation Wind Pressure Humidity
00:00 +15°C° 0 mm 4 mps 766 mmHg 92%
01:00 +16°C° 0 mm 3 mps 766 mmHg 91%
02:00 +14°C° 0 mm 3 mps 765 mmHg 91%
03:00 +14°C° 0 mm 3 mps 765 mmHg 91%
04:00 +14°C° 0 mm 3 mps 765 mmHg 88%
05:00 +14°C° 0 mm 3 mps 765 mmHg 86%
06:00 +14°C° 0 mm 3 mps 766 mmHg 84%
07:00 +18°C° 0 mm 3 mps 766 mmHg 73%
08:00 +20°C° 0 mm 3 mps 766 mmHg 63%
09:00 +22°C° 0 mm 3 mps 766 mmHg 53%
10:00 +25°C° 0 mm 3 mps 765 mmHg 49%
11:00 +26°C° 0 mm 3 mps 765 mmHg 44%
12:00 +28°C° 0 mm 4 mps 765 mmHg 39%
13:00 +28°C° 0 mm 4 mps 765 mmHg 39%
14:00 +29°C° 0 mm 5 mps 764 mmHg 38%
15:00 +29°C° 0 mm 5 mps 764 mmHg 38%
16:00 +28°C° 0 mm 5 mps 764 mmHg 44%
17:00 +26°C° 0 mm 5 mps 763 mmHg 50%
18:00 +24°C° 0 mm 6 mps 763 mmHg 56%
19:00 +22°C° 0 mm 5 mps 763 mmHg 64%
20:00 +20°C° 0 mm 5 mps 764 mmHg 72%
21:00 +17°C° 0 mm 5 mps 764 mmHg 80%
22:00 +17°C° 0 mm 5 mps 764 mmHg 81%
23:00 +17°C° 0 mm 5 mps 763 mmHg 82%
Show more